This is the latest recevied weather packets stored in our database for station/object SV9TNF-57. If no packets are shown the sender has not sent any weather packets the latest 10 day(s).
| Time | Temp. | Humidity | Pressure | Rain* | Wind** | Luminosity | Snow |
|---|---|---|---|---|---|---|---|
| 1788614264 | 31.11° C | 39% | 997.1 hPa | 0 mm | 1.34 m/s, 231° | - | - |
| 1788613964 | 30.56° C | 36% | 997 hPa | 0 mm | 0 m/s | - | - |
| 1788613663 | 31.11° C | 35% | 997 hPa | 0 mm | 7.15 m/s, 331° | - | - |
| 1788613363 | 30.56° C | 36% | 996.9 hPa | 0 mm | 9.83 m/s, 321° | - | - |
| 1788613063 | 30.56° C | 36% | 996.7 hPa | 0 mm | 4.47 m/s, 299° | - | - |
| 1788612763 | 30.56° C | 36% | 996.7 hPa | 0 mm | 0.89 m/s, 258° | - | - |
| 1788612463 | 30.56° C | 37% | 996.8 hPa | 0 mm | 8.49 m/s, 331° | - | - |
| 1788612163 | 31.11° C | 36% | 996.8 hPa | 0 mm | 4.47 m/s, 38° | - | - |
| 1788611863 | 30.56° C | 36% | 996.6 hPa | 0 mm | 3.58 m/s, 333° | - | - |
| 1788611563 | 31.11° C | 36% | 996.7 hPa | 0 mm | 6.71 m/s, 284° | - | - |
| 1788611262 | 30.56° C | 36% | 996.7 hPa | 0 mm | 16.99 m/s, 22° | - | - |
| 1788610963 | 31.11° C | 35% | 996.7 hPa | 0 mm | 11.18 m/s, 324° | - | - |
| 1788610662 | 31.11° C | 34% | 996.8 hPa | 0 mm | 4.92 m/s, 38° | - | - |
| 1788610362 | 31.67° C | 34% | 996.9 hPa | 0 mm | 4.92 m/s, 326° | - | - |
| 1788610062 | 31.67° C | 32% | 997 hPa | 0 mm | 2.24 m/s, 357° | - | - |
| 1788609762 | 31.67° C | 32% | 996.9 hPa | 0 mm | 4.02 m/s, 316° | - | - |
| 1788609462 | 31.67° C | 31% | 996.7 hPa | 0 mm | 2.68 m/s, 354° | - | - |
| 1788609162 | 31.67° C | 31% | 997 hPa | 0 mm | 6.71 m/s, 317° | - | - |
| 1788608862 | 31.67° C | 30% | 996.9 hPa | 0 mm | 6.71 m/s, 3° | - | - |
| 1788608562 | 31.67° C | 31% | 996.7 hPa | 0 mm | 1.34 m/s, 317° | - | - |
| 1788608262 | 31.67° C | 30% | 997.1 hPa | 0 mm | 15.65 m/s, 310° | - | - |
| 1788607962 | 31.67° C | 29% | 997.1 hPa | 0 mm | 11.18 m/s, 48° | - | - |
| 1788607662 | 31.11° C | 31% | 996.8 hPa | 0 mm | 2.24 m/s, 21° | - | - |
| 1788607361 | 31.11° C | 30% | 996.8 hPa | 0 mm | 6.71 m/s, 344° | - | - |
| 1788607061 | 31.67° C | 30% | 996.9 hPa | 0 mm | 6.71 m/s, 20° | - | - |
* Rain latest hour (hover to see other rain measurements)
** Current wind speed in m/s (hover to see current wind gust speed)